Terug naar catalogus

STARLINK-36611

ActiefCommunicatieVLEO
NORAD 67830·PAYLOAD·🇺🇸 United States

Gelanceerd Feb 16, 2026 vanaf Vandenberg Space Force Base

Loading…

Volgende Passages (komende 24 uur)

TLE

VersSource: CelesTrak SupGP

Epoch: Sep 15, 2026, 02:42 UTC

1 67830C 26033K   26258.11298611 -.00003702  00000+0 -13407-3 0  2589
2 67830  42.9998 277.7627 0001310 264.3249 268.1756 15.27585035    17

Volg STARLINK-36611 in realtime met AllMySat

Download on the App Store